Weather observations for the past three days for
Port Hope
Imperial (Metric)
Date Time (edt) Wind (mph) Vis. (mi.) Weather Sky Cond. Temperature (ºF) Relative Humidity Wind Chill (°F) Heat Index (°F) Pressure Precipitation (in)
Air Dwpt 6 hour altimeter (in) sea level (mb) 1 hr 3 hr 6 hr
Max. Min.
23 15:55 SE 6 0.00 NULL NULL 75.9 69.1 79% 77 29.99 1014.9
23 14:55 E 12 0.00 NULL NULL 75 69.1 82% 75 30 1015.0
23 13:55 SE 8 0.00 NULL NULL 78.1 68 81 68 71% 80 30 1015.3
23 12:55 E 15 0.00 NULL NULL 75.9 69.1 79% 77 30.01 1015.6
23 11:55 Vrbl 5 0.00 NULL NULL 79 66 65% 81 30.02 1015.6
23 10:55 Calm 0.00 NULL NULL 78.1 64.9 64% 80 30.02 1015.7
23 09:55 Vrbl 5 0.00 NULL NULL 73.9 64 71% 30.01 1015.6
23 08:55 S 3 0.00 NULL NULL 72 63 73% 30.01 1015.5
23 07:55 Calm 0.00 NULL NULL 68 61 68 63 78% 30 1015.3
23 06:55 S 3 0.00 NULL NULL 64.9 59 81% 30 1015.4
23 05:55 S 3 0.00 NULL NULL 66 54 65% 30 1015.1
23 04:55 S 3 0.00 NULL NULL 66 52 61% 29.99 1014.8
23 03:55 Vrbl 3 0.00 NULL NULL 66.9 50 55% 29.99 1014.9
23 02:55 S 3 0.00 NULL NULL 66 52 61% 29.99 1014.9
23 01:55 Calm 0.00 NULL NULL 66.9 55 72 66 66% 30 1015.3
23 00:55 S 3 0.00 NULL NULL 68 55 63% 29.99 1014.9
22 23:55 Calm 0.00 NULL NULL 68 55 63% 30 1015.1
22 22:55 Calm 0.00 NULL NULL 66.9 55.9 68% 30.01 1015.6
22 21:55 S 5 0.00 NULL NULL 70 54 57% 29.99 1014.8
22 20:55 S 3 0.00 NULL NULL 69.1 57 66% 29.98 1014.5
22 19:55 SE 6 0.00 NULL NULL 72 54 73.9 72 53% 29.97 1014.2
22 18:55 SE 9 0.00 NULL NULL 73 57 57% 29.98 1014.5
22 17:55 E 9 0.00 NULL NULL 73 55.9 55% 29.99 1014.8
22 16:55 E 10 0.00 NULL NULL 73 57 57% 30.01 1015.6
22 15:55 E 9 0.00 NULL NULL 73 57.9 59% 30.02 1015.9
22 14:55 E 8 0.00 NULL NULL 73 59 62% 30.03 1016.1
22 13:55 E 7 0.00 NULL NULL 73 60.1 73.9 69.1 64% 30.03 1016.3
22 12:55 E 6 0.00 NULL NULL 73 59 62% 30.04 1016.5
22 11:55 E 6 0.00 NULL NULL 72 59 64% 30.06 1017.3
22 10:55 E 7 0.00 NULL NULL 71.1 60.1 68% 30.07 1017.4
22 09:55 E 5 0.00 NULL NULL 71.1 63 76% 30.06 1017.1
22 08:55 E 6 0.00 NULL NULL 70 62.1 76% 30.06 1017.2
22 07:55 E 6 0.00 NULL NULL 69.1 62.1 71.1 61 78% 30.06 1017.3
22 06:55 E 7 0.00 NULL NULL 69.1 62.1 78% 30.06 1017.3
22 05:55 E 7 0.00 NULL NULL 70 61 73% 30.06 1017.2
22 04:55 Calm 0.00 NULL NULL 62.1 57.9 86% 30.06 1017.4
22 03:55 E 6 0.00 NULL NULL 70 57.9 66% 30.06 1017.3
22 02:55 E 7 0.00 NULL NULL 70 57.9 66% 30.08 1017.8
22 01:55 E 7 0.00 NULL NULL 70 55.9 71.1 64.9 61% 30.09 1018.3
22 00:55 E 5 0.00 NULL NULL 70 57 64% 30.11 1018.7
21 23:55 NE 6 0.00 NULL NULL 70 57.9 66% 30.1 1018.7
21 22:55 NE 6 0.00 NULL NULL 70 57 64% 30.1 1018.6
21 21:55 NE 7 0.00 NULL NULL 70 57 64% 30.1 1018.6
21 20:55 NE 7 0.00 NULL NULL 70 57.9 66% 30.09 1018.2
21 19:55 NE 7 0.00 NULL NULL 70 59 73 70 68% 30.09 1018.4
21 18:55 NE 7 0.00 NULL NULL 71.1 60.1 68% 30.1 1018.4
21 17:55 NE 12 0.00 NULL NULL 72 61 68% 30.11 1018.8
21 16:55 NE 12 0.00 NULL NULL 73 62.1 69% 30.11 1019.1
21 15:55 NE 10 0.00 NULL NULL 73 64 74% 30.12 1019.2
21 14:55 NE 10 0.00 NULL NULL 73 64.9 76% 30.12 1019.2
21 13:55 N 7 0.00 NULL NULL 73 66.9 73.9 71.1 81% 30.12 1019.1
21 12:55 NE 8 0.00 NULL NULL 73 66.9 81% 30.11 1019.0
21 11:55 NE 8 0.00 NULL NULL 73 66.9 81% 30.11 1018.8
21 10:55 NE 7 0.00 NULL NULL 73 66 79% 30.11 1018.7
21 09:55 N 8 0.00 NULL NULL 73 66 79% 30.1 1018.5
21 08:55 Calm 0.00 NULL NULL 73 66.9 81% 30.1 1018.3
21 07:55 Vrbl 3 0.00 NULL NULL 71.1 64.9 72 64.9 81% 30.09 1018.1
21 06:55 Vrbl 5 0.00 NULL NULL 71.1 64 79% 30.08 1017.6
21 05:55 W 5 0.00 NULL NULL 64.9 62.1 90% 30.06 1017.3
21 04:55 W 3 0.00 NULL NULL 64.9 63 93% 30.05 1016.7
21 03:55 W 3 0.00 NULL NULL 68 64 87% 30.04 1016.5
21 02:55 NW 5 0.00 NULL NULL 72 66 82% 30.05 1016.5
21 01:55 W 7 0.00 NULL NULL 69.1 61 79 69.1 76% 30.04 1016.3
21 00:55 SW 6 0.00 NULL NULL 70 61 73% 30.04 1016.5
20 23:55 SW 5 0.00 NULL NULL 71.1 61 71% 30.04 1016.5
20 22:55 SW 5 0.00 NULL NULL 72 61 68% 30.05 1016.7
20 21:55 Calm 0.00 NULL NULL 73 62.1 69% 30.04 1016.5
20 20:55 Calm 0.00 NULL NULL 75 63 66% 77 30.03 1016.3
20 19:55 Calm 0.00 NULL NULL 79 62.1 84 78.1 56% 80 30.03 1016.0
20 18:55 Calm 0.00 NULL NULL 80.1 61 52% 81 30.03 1016.2
20 17:55 E 6 0.00 NULL NULL 79 63 58% 81 30.04 1016.4
Date Time (edt) Wind (mph) Vis. (mi.) Weather Sky Cond. Air Dwpt Max. Min. Relative Humidity Wind Chill (°F) Heat Index (°F) altimeter (in) sea level (mb) 1 hr 3 hr 6 hr
6 hour
Temperature (ºF) Pressure Precipitation (in)